Merida, Mexico

6:15 PM CST on March 26, 2017 (GMT -0600)
Lic Manuel Crecencio Rejon

Weather History for MMMD - January, 2013

Change the Weather History Date:

Thursday, January 10, 2013

  Actual Average Record
Temperature  
Mean Temperature 84 °F -  
Max Temperature 94 °F 84 °F 96 °F (2009)
Min Temperature 75 °F 62 °F 35 °F (2005)
Cooling Degree Days 20    
Growing Degree Days 34 (Base 50)    
Moisture  
Dew Point 70 °F    
Average Humidity 71    
Maximum Humidity 89    
Minimum Humidity 40    
Precipitation  
Precipitation 0.00 in - - ()
Sea Level Pressure  
Sea Level Pressure 30.02 in    
Wind  
Wind Speed 11 mph ()    
Max Wind Speed 23 mph    
Max Gust Speed 28 mph    
Visibility 6.1 miles    
Events      
Averages and records for this station are not official NWS values.
T = Trace of Precipitation, MM = Missing Value Source: Averaged Metar Reports

Daily Weather History Graph

Daily Weather History Graph

Search for Another Location

Airport or City:

Trip Planner

Search our weather history database for the weather conditions in past years. The results will help you decide how hot, cold, wet, or windy it might be!

Date:

Astronomy

Jan. 10, 2013 Rise Set
Actual Time 6:37 AM CST 5:34 PM CST
Civil Twilight 6:13 AM CST 5:58 PM CST
Nautical Twilight 5:46 AM CST 6:26 PM CST
Astronomical Twilight 5:19 AM CST 6:53 PM CST
Moon 5:18 AM CST (1/10) 4:40 PM CST (1/10)
Length of Visible Light 11h 45m
Length of Day
10h 57m
Waning Crescent, 2% of the Moon is Illuminated
Jan 10
Waning Crescent
Jan 11
New
Jan 18
First Quarter
Jan 26
Full
Feb 3
Last Quarter

Hourly Weather History & Observations

Time (CST) Temp. Heat Index Dew Point Humidity Pressure Visibility Wind Dir Wind Speed Gust Speed Precip Events Conditions
12:47 AM 78.8 °F - 71.6 °F 78% 30.00 in 7.0 mi East 11.5 mph - N/A   Mostly Cloudy
1:45 AM 77.0 °F - 71.6 °F 83% 29.99 in 7.0 mi East 11.5 mph - N/A   Mostly Cloudy
2:48 AM 75.2 °F - 71.6 °F 89% 30.04 in 7.0 mi East 8.1 mph - N/A   Mostly Cloudy
2:50 AM 77 °F - 74 °F 86% 30.01 in 3 mi East 8.9 mph - -   Partly Cloudy
3:48 AM 75.2 °F - 71.6 °F 89% 30.00 in 7.0 mi ESE 13.8 mph - N/A   Mostly Cloudy
4:47 AM 75.2 °F - 71.6 °F 89% 30.01 in 7.0 mi East 9.2 mph - N/A   Mostly Cloudy
5:48 AM 75.2 °F - 71.6 °F 89% 30.02 in 6.0 mi ESE 11.5 mph - N/A   Mostly Cloudy
5:50 AM 76 °F - 73 °F 89% 30.03 in 3 mi ESE 4.5 mph - -   Mostly Cloudy
6:23 AM 75.2 °F - 71.6 °F 89% 30.02 in 4.0 mi ESE 8.1 mph - N/A   Mostly Cloudy
6:47 AM 75.2 °F - 71.6 °F 89% 30.03 in 3.0 mi East 11.5 mph - N/A   Haze
7:42 AM 75.2 °F - 71.6 °F 89% 30.05 in 4.0 mi East 11.5 mph - N/A   Mostly Cloudy
8:47 AM 80.6 °F 85.4 °F 73.4 °F 79% 30.06 in 6.0 mi ESE 20.7 mph - N/A   Mostly Cloudy
8:50 AM 81 °F - 74 °F 74% 30.06 in 6 mi ESE 11.2 mph - -   Scattered Clouds
9:15 AM 82.4 °F 86.3 °F 69.8 °F 66% 30.05 in 7.0 mi ESE 23.0 mph - N/A   Scattered Clouds
9:45 AM 84.2 °F 88.4 °F 69.8 °F 62% 30.04 in 7.0 mi SE 19.6 mph - N/A   Mostly Cloudy
10:44 AM 87.8 °F 91.4 °F 68.0 °F 52% 30.01 in 7.0 mi SE 19.6 mph - N/A   Mostly Cloudy
11:45 AM 87.8 °F 90.4 °F 66.2 °F 49% 30.00 in 7.0 mi SE 16.1 mph 27.6 mph N/A   Mostly Cloudy
11:50 AM 90 °F - 72 °F 46% 29.99 in 6 mi SE 8.9 mph - -   Partly Cloudy
12:47 PM 89.6 °F 92.2 °F 66.2 °F 46% 29.96 in 7.0 mi SE 11.5 mph 23.0 mph N/A   Mostly Cloudy
1:44 PM 91.4 °F 94.0 °F 66.2 °F 43% 29.95 in 7.0 mi SE 18.4 mph - N/A   Mostly Cloudy
2:46 PM 91.4 °F 93.2 °F 64.4 °F 41% 29.95 in 7.0 mi SE 19.6 mph - N/A   Mostly Cloudy
2:50 PM 93 °F - 71 °F 40% 29.95 in 6 mi ESE 8.9 mph - -   Partly Cloudy
3:43 PM 84.2 °F 88.4 °F 69.8 °F 62% 29.97 in 7.0 mi SE 16.1 mph - N/A   Mostly Cloudy
4:44 PM 80.6 °F 83.2 °F 68.0 °F 65% 30.00 in 7.0 mi SE 23.0 mph - N/A   Mostly Cloudy
5:49 PM 78.8 °F - 66.2 °F 65% 30.01 in 7.0 mi ESE 13.8 mph - N/A   Mostly Cloudy
5:50 PM 80 °F - 71 °F 69% 30.02 in 6 mi ESE 11.2 mph - -   Partly Cloudy
6:48 PM 78.8 °F - 68.0 °F 69% 30.02 in 7.0 mi ESE 11.5 mph - N/A   Mostly Cloudy
7:48 PM 78.8 °F - 68.0 °F 69% 30.03 in 7.0 mi East 8.1 mph - N/A   Mostly Cloudy
8:41 PM 77.0 °F - 69.8 °F 78% 30.06 in 7.0 mi ESE 11.5 mph - N/A   Mostly Cloudy
8:50 PM 78 °F - 71 °F 73% 30.06 in 3 mi ESE 8.9 mph - -   Scattered Clouds
9:51 PM 77.0 °F - 69.8 °F 78% 30.05 in 7.0 mi ESE 13.8 mph - N/A   Scattered Clouds
10:41 PM 77.0 °F - 69.8 °F 78% 30.06 in 7.0 mi ESE 12.7 mph - N/A   Scattered Clouds
11:41 PM 75.2 °F - 69.8 °F 83% 30.08 in 7.0 mi East 10.4 mph - N/A   Scattered Clouds
11:50 PM 77 °F - 73 °F 84% 30.06 in 3 mi ESE 13.4 mph - -   Scattered Clouds